Weather History for Santee, CA

Change the Weather History Date:

Sunday, January 19, 2014

  Actual Average Record
Temperature  
Mean Temperature 60 °F -  
Max Temperature 82 °F 70 °F 84 °F (2000)
Min Temperature 39 °F 41 °F 32 °F (2002)
Degree Days  
Heating Degree Days 4    
Growing Degree Days 10 (Base 50)    
Moisture  
Dew Point 24 °F    
Average Humidity 33    
Maximum Humidity 56    
Minimum Humidity 7    
Precipitation  
Precipitation 0.00 in - - ()
Sea Level Pressure  
Sea Level Pressure 30.10 in    
Wind  
Wind Speed 1 mph (WSW)    
Max Wind Speed 8 mph    
Max Gust Speed -    
Visibility 10 miles    
Events      
Averages and records for this station are not official NWS values.
T = Trace of Precipitation, MM = Missing Value Source: NWS Daily Summary

Daily Weather History Graph

Daily Weather History Graph

Search for Another Location

Airport:

Trip Planner

Search our weather history database for the weather conditions in past years. The results will help you decide how hot, cold, wet, or windy it might be!

Date:

Astronomy

Jan. 19, 2014 Rise Set
Actual Time 6:49 AM PST 5:08 PM PST
Civil Twilight 6:22 AM PST 5:34 PM PST
Nautical Twilight 5:52 AM PST 6:04 PM PST
Astronomical Twilight 5:23 AM PST 6:34 PM PST
Moon 8:36 PM PST (1/19) 8:34 AM PST (1/19)
Length of Visible Light 11h 11m
Length of Day
10h 18m
Waning Gibbous, 89% of the Moon is Illuminated
Jan 19
Waning Gibbous
Jan 23
Last Quarter
Jan 30
New
Feb 6
First Quarter
Feb 14
Full

Hourly Weather History & Observations

Time (PST) Temp. Windchill Dew Point Humidity Pressure Visibility Wind Dir Wind Speed Gust Speed Precip Events Conditions
12:15 AM 46.4 °F - 23.0 °F 40% 30.08 in 10.0 mi Calm Calm - N/A   Clear
12:35 AM 48.2 °F - 23.0 °F 37% 30.07 in 10.0 mi WNW 4.6 mph - N/A   Clear
12:55 AM 46.4 °F - 21.2 °F 37% 30.07 in 10.0 mi Calm Calm - N/A   Clear
1:15 AM 46.4 °F - 21.2 °F 37% 30.08 in 10.0 mi Calm Calm - N/A   Clear
1:35 AM 46.4 °F - 23.0 °F 40% 30.08 in 10.0 mi Calm Calm - N/A   Clear
1:55 AM 46.4 °F - 23.0 °F 40% 30.08 in 10.0 mi Calm Calm - N/A   Clear
2:15 AM 46.4 °F - 23.0 °F 40% 30.08 in 10.0 mi Calm Calm - N/A   Clear
2:35 AM 46.4 °F - 23.0 °F 40% 30.08 in 10.0 mi Calm Calm - N/A   Clear
2:55 AM 44.6 °F - 23.0 °F 43% 30.08 in 10.0 mi Calm Calm - N/A   Clear
3:15 AM 42.8 °F - 23.0 °F 46% 30.08 in 10.0 mi Calm Calm - N/A   Clear
3:35 AM 44.6 °F 42.2 °F 23.0 °F 43% 30.07 in 10.0 mi NW 4.6 mph - N/A   Clear
3:55 AM 42.8 °F - 23.0 °F 46% 30.08 in 10.0 mi Calm Calm - N/A   Clear
4:15 AM 42.8 °F - 23.0 °F 46% 30.07 in 10.0 mi Calm Calm - N/A   Clear
4:35 AM 42.8 °F - 24.8 °F 49% 30.07 in 10.0 mi Calm Calm - N/A   Clear
4:55 AM 42.8 °F - 24.8 °F 49% 30.08 in 10.0 mi Calm Calm - N/A   Clear
5:15 AM 41.0 °F 39.0 °F 23.0 °F 49% 30.08 in 10.0 mi NW 3.5 mph - N/A   Clear
5:35 AM 41.0 °F - 24.8 °F 53% 30.09 in 10.0 mi Calm Calm - N/A   Clear
5:55 AM 41.0 °F - 23.0 °F 49% 30.09 in 10.0 mi Calm Calm - N/A   Clear
6:15 AM 41.0 °F - 23.0 °F 49% 30.10 in 10.0 mi Calm Calm - N/A   Clear
6:35 AM 39.2 °F - 23.0 °F 52% 30.10 in 10.0 mi Calm Calm - N/A   Clear
6:47 AM 39.2 °F - 24.8 °F 56% 30.10 in 20.0 mi Calm Calm - N/A   Mostly Cloudy
6:55 AM 41.0 °F - 23.0 °F 49% 30.10 in 10.0 mi Calm Calm - N/A   Clear
7:15 AM 41.0 °F - 23.0 °F 49% 30.11 in 10.0 mi Calm Calm - N/A   Clear
7:35 AM 42.8 °F - 23.0 °F 46% 30.11 in 10.0 mi Calm Calm - N/A   Clear
7:55 AM 42.8 °F - 23.0 °F 46% 30.12 in 10.0 mi Calm Calm - N/A   Clear
8:15 AM 44.6 °F - 23.0 °F 43% 30.13 in 10.0 mi Calm Calm - N/A   Clear
8:35 AM 48.2 °F - 21.2 °F 34% 30.14 in 10.0 mi Calm Calm - N/A   Clear
8:47 AM 48.2 °F - 23.0 °F 37% 30.14 in 25.0 mi Calm Calm - N/A   Mostly Cloudy
8:55 AM 48.2 °F - 23.0 °F 37% 30.14 in 10.0 mi Calm Calm - N/A   Clear
9:15 AM 50.0 °F - 21.2 °F 32% 30.15 in 10.0 mi Calm Calm - N/A   Clear
9:35 AM 51.8 °F - 23.0 °F 33% 30.15 in 10.0 mi Calm Calm - N/A   Clear
9:55 AM 55.4 °F - 23.0 °F 29% 30.15 in 10.0 mi Calm Calm - N/A   Clear
10:15 AM 59.0 °F - 23.0 °F 25% 30.15 in 10.0 mi Calm Calm - N/A   Clear
10:35 AM 60.8 °F - 23.0 °F 23% 30.14 in 10.0 mi Calm Calm - N/A   Clear
10:47 AM 62.6 °F - 23.0 °F 22% 30.13 in 25.0 mi Calm Calm - N/A   Mostly Cloudy
10:55 AM 64.4 °F - 23.0 °F 21% 30.13 in 10.0 mi Calm Calm - N/A   Clear
11:15 AM 66.2 °F - 23.0 °F 19% 30.12 in 10.0 mi Calm Calm - N/A   Clear
11:35 AM 69.8 °F - 23.0 °F 17% 30.11 in 10.0 mi Calm Calm - N/A   Clear
11:55 AM 75.2 °F - 19.4 °F 12% 30.09 in 10.0 mi Calm Calm - N/A   Clear
12:15 PM 78.8 °F - 19.4 °F 11% 30.08 in 10.0 mi Calm Calm - N/A   Clear
12:35 PM 82.4 °F - 12.2 °F 7% 30.08 in 10.0 mi Calm Calm - N/A   Clear
12:55 PM 80.6 °F - 15.8 °F 9% 30.07 in 10.0 mi Calm Calm - N/A   Clear
1:15 PM 80.6 °F - 15.8 °F 9% 30.07 in 10.0 mi SW 8.1 mph - N/A   Clear
1:35 PM 77.0 °F - 14.0 °F 9% 30.07 in 10.0 mi SW 6.9 mph - N/A   Clear
1:55 PM 75.2 °F - 19.4 °F 12% 30.07 in 10.0 mi SSW 5.8 mph - N/A   Clear
2:15 PM 75.2 °F - 19.4 °F 12% 30.06 in 10.0 mi SSW 5.8 mph - N/A   Clear
2:35 PM 75.2 °F - 23.0 °F 14% 30.06 in 10.0 mi South 3.5 mph - N/A   Clear
2:55 PM 75.2 °F - 23.0 °F 14% 30.06 in 10.0 mi South 3.5 mph - N/A   Clear
3:15 PM 75.2 °F - 23.0 °F 14% 30.06 in 10.0 mi SSW 4.6 mph - N/A   Clear
3:35 PM 75.2 °F - 21.2 °F 13% 30.06 in 10.0 mi SSW 5.8 mph - N/A   Clear
3:47 PM 75.2 °F - 21.2 °F 13% 30.06 in 25.0 mi WSW 8.1 mph - N/A   Mostly Cloudy
3:55 PM 73.4 °F - 19.4 °F 13% 30.07 in 10.0 mi SSW 3.5 mph - N/A   Clear
4:15 PM 71.6 °F - 19.4 °F 14% 30.07 in 10.0 mi Calm Calm - N/A   Clear
4:35 PM 71.6 °F - 23.0 °F 16% 30.07 in 10.0 mi SSW 3.5 mph - N/A   Clear
4:55 PM 69.8 °F - 32.0 °F 25% 30.07 in 8.0 mi Calm Calm - N/A   Clear
5:15 PM 68.0 °F - 32.0 °F 26% 30.08 in 5.0 mi Calm Calm - N/A   Haze
5:35 PM 64.4 °F - 32.0 °F 30% 30.08 in 9.0 mi Calm Calm - N/A   Clear
5:55 PM 62.6 °F - 32.0 °F 32% 30.09 in 10.0 mi East 3.5 mph - N/A   Clear
6:15 PM 62.6 °F - 32.0 °F 32% 30.09 in 10.0 mi Calm Calm - N/A   Clear
6:35 PM 60.8 °F - 32.0 °F 34% 30.09 in 9.0 mi Calm Calm - N/A   Clear
6:55 PM 60.8 °F - 30.2 °F 31% 30.09 in 10.0 mi WNW 3.5 mph - N/A   Clear
7:15 PM 57.2 °F - 26.6 °F 31% 30.10 in 10.0 mi WNW 3.5 mph - N/A   Clear
7:35 PM 57.2 °F - 26.6 °F 31% 30.09 in 10.0 mi North 3.5 mph - N/A   Clear
7:55 PM 55.4 °F - 26.6 °F 33% 30.10 in 10.0 mi West 3.5 mph - N/A   Clear
8:15 PM 55.4 °F - 28.4 °F 36% 30.10 in 10.0 mi WNW 3.5 mph - N/A   Clear
8:35 PM 51.8 °F - 26.6 °F 38% 30.11 in 10.0 mi Calm Calm - N/A   Clear
8:47 PM 53.6 °F - 26.6 °F 35% 30.10 in 12.0 mi Calm Calm - N/A   Clear
8:55 PM 53.6 °F - 26.6 °F 35% 30.10 in 10.0 mi Calm Calm - N/A   Clear
9:15 PM 50.0 °F - 28.4 °F 43% 30.11 in 9.0 mi Calm Calm - N/A   Clear
9:35 PM 50.0 °F - 28.4 °F 43% 30.11 in 10.0 mi Calm Calm - N/A   Clear
9:55 PM 48.2 °F - 26.6 °F 43% 30.11 in 10.0 mi Calm Calm - N/A   Clear
10:15 PM 48.2 °F - 28.4 °F 46% 30.12 in 10.0 mi Calm Calm - N/A   Clear
10:35 PM 48.2 °F - 28.4 °F 46% 30.13 in 10.0 mi Calm Calm - N/A   Clear
10:55 PM 46.4 °F 45.2 °F 26.6 °F 46% 30.13 in 10.0 mi NW 3.5 mph - N/A   Clear
11:15 PM 46.4 °F - 26.6 °F 46% 30.13 in 10.0 mi Calm Calm - N/A   Clear
11:35 PM 46.4 °F - 28.4 °F 50% 30.12 in 10.0 mi Calm Calm - N/A   Clear
11:55 PM 44.6 °F - 26.6 °F 49% 30.12 in 10.0 mi Calm Calm - N/A   Clear